KUIPER-00063

Last updated on Thu Jul 03 2025 00:02:08 GMT+0000 (Coordinated Universal Time)

1 64523U 25134Z 25183.58335648 .00004661 00000+0 14181-3 0 9990 2 64523 51.8763 286.9064 0003096 116.0936 8.8412 15.35975081 1368
UTC large
Height (km)
Speed (km/s)
/
Latitude / Longitude
Inclination (degrees)
Orbital Period (minutes)
Azimuth
Elevation
Range (km)
Doppler Factor

Next 0 passes for location: London (51.5072 / 0.1276)

Sorry there are no passes over London.